Terminal Aerodrome Forecast
Issued by NWS Cheyenne, WY

Home | Current Version | Previous Version | Text Only | Print | Product List | Glossary On
Versions: 1 2 3 4 5 6 7 8 9 10 11 12 13 14 15 16 17 18 19 20 21 22 23 24 25 26 27 28 29 30 31 32
000
FTUS45 KCYS 240500
TAFCYS
TAF
KCYS 240520Z 2406/2506 21011KT P6SM SCT150
     FM241600 27012G22KT P6SM SCT100
     FM242100 26015G23KT P6SM VCTS SCT100CB BKN150
     FM250300 25010KT P6SM SCT150=

USA.gov is the U.S. government's official web portal to all federal, state and local government web resources and services.